| time (UTC) | temp C | wind direction | speed KPH | gust KPH | rain 1hr cm | rain 24hr cm | rain mn cm | humidity % | barometer mb |
| 20260503194040 | 18 | 268 | 19.3 | 33.8 | 0.00 | 0.03 | 0.00 | 100 | |
| 20260503193540 | 19 | 270 | 12.9 | 22.5 | 0.00 | 0.03 | 0.00 | 100 | |
| 20260503193040 | 18 | 223 | 6.4 | 22.5 | 0.00 | 0.03 | 0.00 | 100 | |
| 20260503192540 | 18 | 237 | 4.8 | 19.3 | 0.00 | 0.03 | 0.00 | 100 | |
| 20260503192040 | 18 | 244 | 8.0 | 27.4 | 0.00 | 0.03 | 0.00 | 100 | |
| 20260503191540 | 18 | 239 | 9.7 | 32.2 | 0.00 | 0.03 | 0.00 | 100 | |
| 20260503191040 | 19 | 250 | 11.3 | 33.8 | 0.00 | 0.03 | 0.00 | 100 | |
| 20260503190540 | 18 | 306 | 9.7 | 25.7 | 0.00 | 0.03 | 0.00 | 100 | |
| 20260503190040 | 20 | 241 | 8.0 | 27.4 | 0.00 | 0.03 | 0.00 | 100 | |
| 20260503185540 | 19 | 282 | 8.0 | 29.0 | 0.00 | 0.03 | 0.00 | 100 | |
| 20260503185040 | 18 | 267 | 4.8 | 38.6 | 0.00 | 0.03 | 0.00 | 100 | |
| 20260503184540 | 18 | 278 | 11.3 | 35.4 | 0.00 | 0.03 | 0.00 | 100 | |
| 20260503184040 | 19 | 223 | 6.4 | 30.6 | 0.00 | 0.03 | 0.00 | 100 | |
| 20260503183540 | 19 | 281 | 3.2 | 25.7 | 0.00 | 0.03 | 0.00 | 100 | |
| 20260503183040 | 18 | 255 | 22.5 | 29.0 | 0.03 | 0.03 | 0.00 | 100 | |
| 20260503182540 | 17 | 272 | 12.9 | 29.0 | 0.03 | 0.03 | 0.00 | 100 | |
| 20260503182040 | 17 | 240 | 6.4 | 27.4 | 0.03 | 0.03 | 0.00 | 100 | |
| 20260503181540 | 17 | 102 | 1.6 | 30.6 | 0.03 | 0.03 | 0.00 | 100 | |
| 20260503181040 | 18 | 282 | 6.4 | 25.7 | 0.03 | 0.03 | 0.00 | 100 | |
| 20260503180540 | 18 | 262 | 16.1 | 19.3 | 0.03 | 0.03 | 0.00 | 100 | |
| 20260503180040 | 18 | 312 | 9.7 | 27.4 | 0.03 | 0.03 | 0.03 | 100 | |
| 20260503175540 | 18 | 320 | 3.2 | 24.1 | 0.03 | 0.03 | 0.03 | 100 | |
| 20260503175040 | 19 | 270 | 6.4 | 27.4 | 0.03 | 0.03 | 0.03 | 100 | |
| 20260503174540 | 20 | 225 | 16.1 | 27.4 | 0.03 | 0.03 | 0.03 | 100 | |
| 20260503174040 | 20 | 258 | 14.5 | 38.6 | 0.03 | 0.03 | 0.03 | 100 | |
| 20260503173540 | 20 | 232 | 8.0 | 22.5 | 0.03 | 0.03 | 0.03 | 100 | |
| 20260503173040 | 19 | 260 | 11.3 | 30.6 | 0.00 | 0.00 | 0.00 | 100 | |
| 20260503172540 | 19 | 250 | 22.5 | 38.6 | 0.00 | 0.00 | 0.00 | 100 | |
| 20260503172040 | 20 | 278 | 4.8 | 35.4 | 0.00 | 0.00 | 0.00 | 100 | |
| 20260503171540 | 19 | 243 | 11.3 | 25.7 | 0.00 | 0.00 | 0.00 | 100 | |
| 20260503171040 | 20 | 270 | 14.5 | 33.8 | 0.00 | 0.00 | 0.00 | 100 | |
| 20260503170540 | 19 | 254 | 14.5 | 25.7 | 0.00 | 0.00 | 0.00 | 100 | |
| 20260503150540 | 16 | 275 | 11.3 | 19.3 | 0.00 | 0.00 | 0.00 | 100 | |
| 20260503131041 | 14 | 267 | 12.9 | 25.7 | 0.00 | 0.00 | 0.00 | 100 | |
| 20260503130541 | 14 | 270 | 3.2 | 20.9 | 0.00 | 0.00 | 0.00 | 100 | |
| 20260503110541 | 3 | 168 | 0.0 | 0.0 | 0.00 | 0.00 | 0.00 | 100 | |
| 20260503081541 | 3 | 232 | 0.0 | 0.0 | 0.00 | 0.00 | 0.00 | 100 | |
| 20260503081041 | 3 | 232 | 0.0 | 0.0 | 0.00 | 0.00 | 0.00 | 100 | |
| 20260503080541 | 3 | 232 | 0.0 | 0.0 | 0.00 | 0.00 | 0.00 | 100 | |
| 20260503072541 | 3 | 261 | 0.0 | 3.2 | 0.00 | 0.00 | 0.00 | 100 | |
| 20260503072041 | 3 | 244 | 0.0 | 0.0 | 0.00 | 0.00 | 0.00 | 100 | |
| 20260503071541 | 3 | 244 | 0.0 | 4.8 | 0.00 | 0.00 | 0.00 | 100 | |
| 20260503071041 | 3 | 233 | 0.0 | 4.8 | 0.00 | 0.00 | 0.00 | 100 | |
| 20260503070541 | 3 | 248 | 0.0 | 3.2 | 0.00 | 0.00 | 0.00 | 100 | |
| 20260503055041 | 3 | 330 | 0.0 | 0.0 | 0.00 | 0.00 | 0.00 | 100 | |
| 20260503054541 | 3 | 330 | 0.0 | 0.0 | 0.00 | 0.00 | 0.00 | 100 | |
| 20260503054041 | 3 | 330 | 0.0 | 0.0 | 0.00 | 0.00 | 0.00 | 100 | |
| 20260503053541 | 3 | 330 | 0.0 | 0.0 | 0.00 | 0.00 | 0.00 | 100 | |
| 20260503053041 | 3 | 330 | 0.0 | 0.0 | 0.00 | 0.00 | 0.00 | 100 | |
| 20260503052544 | 3 | 330 | 0.0 | 0.0 | 0.00 | 0.00 | 0.00 | 100 | |
| 20260503052041 | 3 | 330 | 0.0 | 0.0 | 0.00 | 0.00 | 0.00 | 100 | |
| 20260503051541 | 3 | 330 | 0.0 | 0.0 | 0.00 | 0.00 | 0.00 | 100 | |
| 20260503051041 | 3 | 330 | 0.0 | 0.0 | 0.00 | 0.00 | 0.00 | 100 | |
| 20260503050541 | 3 | 330 | 0.0 | 0.0 | 0.00 | 0.00 | 0.00 | 100 | |
| 20260503050041 | 3 | 330 | 0.0 | 0.0 | 0.00 | 0.00 | 0.00 | 100 | |
| 20260503045542 | 3 | 330 | 0.0 | 0.0 | 0.00 | 0.00 | 0.00 | 100 | |
| 20260503045042 | 3 | 330 | 0.0 | 0.0 | 0.00 | 0.00 | 0.00 | 100 | |
| 20260503044542 | 3 | 330 | 0.0 | 0.0 | 0.00 | 0.00 | 0.00 | 100 | |
| 20260503044042 | 4 | 330 | 0.0 | 0.0 | 0.00 | 0.00 | 0.00 | 100 | |
| 20260503043542 | 4 | 330 | 0.0 | 0.0 | 0.00 | 0.00 | 0.00 | 100 | |
| 20260503043042 | 4 | 330 | 0.0 | 0.0 | 0.00 | 0.00 | 0.00 | 100 | |
| 20260503042542 | 4 | 330 | 0.0 | 0.0 | 0.00 | 0.00 | 0.00 | 100 | |
| 20260503042042 | 4 | 330 | 0.0 | 0.0 | 0.00 | 0.00 | 0.00 | 100 | |
| 20260503041542 | 5 | 330 | 0.0 | 0.0 | 0.00 | 0.00 | 0.00 | 100 | |
| 20260503041042 | 5 | 330 | 0.0 | 0.0 | 0.00 | 0.00 | 0.00 | 100 | |
| 20260503040542 | 4 | 330 | 0.0 | 0.0 | 0.00 | 0.00 | 0.00 | 100 | |
| 20260503040042 | 5 | 330 | 0.0 | 0.0 | 0.00 | 0.00 | 0.00 | 100 | |
| 20260503035542 | 5 | 330 | 0.0 | 0.0 | 0.00 | 0.00 | 0.00 | 100 | |
| 20260503035042 | 5 | 330 | 0.0 | 0.0 | 0.00 | 0.00 | 0.00 | 100 | |
| 20260503034542 | 5 | 330 | 0.0 | 0.0 | 0.00 | 0.00 | 0.00 | 100 | |
| 20260503034042 | 5 | 330 | 0.0 | 0.0 | 0.00 | 0.00 | 0.00 | 100 | |
| 20260503033542 | 5 | 330 | 0.0 | 0.0 | 0.00 | 0.00 | 0.00 | 100 | |
| 20260503033042 | 5 | 330 | 0.0 | 0.0 | 0.00 | 0.00 | 0.00 | 100 | |
| 20260503032542 | 5 | 330 | 0.0 | 0.0 | 0.00 | 0.00 | 0.00 | 100 | |
| 20260503032042 | 5 | 330 | 0.0 | 0.0 | 0.00 | 0.00 | 0.00 | 100 | |
| 20260503031542 | 5 | 330 | 0.0 | 0.0 | 0.00 | 0.00 | 0.00 | 100 | |
| 20260503031042 | 5 | 330 | 0.0 | 0.0 | 0.00 | 0.00 | 0.00 | 100 | |
| 20260503030542 | 5 | 330 | 0.0 | 0.0 | 0.00 | 0.00 | 0.00 | 100 | |
| 20260503030042 | 5 | 330 | 0.0 | 0.0 | 0.00 | 0.00 | 0.00 | 100 | |
| 20260503025542 | 5 | 330 | 0.0 | 0.0 | 0.00 | 0.00 | 0.00 | 100 | |
| 20260503025042 | 5 | 330 | 0.0 | 0.0 | 0.00 | 0.00 | 0.00 | 100 | |
| 20260503024542 | 5 | 330 | 0.0 | 0.0 | 0.00 | 0.00 | 0.00 | 100 | |
| 20260503024042 | 5 | 330 | 0.0 | 0.0 | 0.00 | 0.00 | 0.00 | 100 | |
| 20260503023542 | 5 | 330 | 0.0 | 0.0 | 0.00 | 0.00 | 0.00 | 100 | |
| 20260503023042 | 5 | 330 | 0.0 | 0.0 | 0.00 | 0.00 | 0.00 | 100 | |
| 20260503022542 | 5 | 330 | 0.0 | 0.0 | 0.00 | 0.00 | 0.00 | 100 | |
| 20260503022042 | 5 | 330 | 0.0 | 0.0 | 0.00 | 0.00 | 0.00 | 100 | |
| 20260503021542 | 5 | 330 | 0.0 | 0.0 | 0.00 | 0.00 | 0.00 | 100 | |
| 20260503021042 | 5 | 330 | 0.0 | 0.0 | 0.00 | 0.00 | 0.00 | 100 | |
| 20260503020542 | 5 | 330 | 0.0 | 0.0 | 0.00 | 0.00 | 0.00 | 100 | |
| 20260503020042 | 5 | 330 | 0.0 | 0.0 | 0.00 | 0.00 | 0.00 | 100 | |
| 20260503015542 | 6 | 330 | 0.0 | 0.0 | 0.00 | 0.00 | 0.00 | 100 | |
| 20260503015042 | 6 | 330 | 0.0 | 0.0 | 0.00 | 0.00 | 0.00 | 100 | |
| 20260503014542 | 6 | 330 | 0.0 | 0.0 | 0.00 | 0.00 | 0.00 | 100 | |
| 20260503014042 | 6 | 330 | 0.0 | 0.0 | 0.00 | 0.00 | 0.00 | 100 | |
| 20260503013542 | 6 | 330 | 0.0 | 0.0 | 0.00 | 0.00 | 0.00 | 100 | |
| 20260503013042 | 6 | 330 | 0.0 | 0.0 | 0.00 | 0.00 | 0.00 | 100 | |
| 20260503012542 | 6 | 330 | 0.0 | 0.0 | 0.00 | 0.00 | 0.00 | 100 | |
| 20260503012042 | 6 | 330 | 0.0 | 0.0 | 0.00 | 0.00 | 0.00 | 100 | |
| 20260503011542 | 7 | 330 | 0.0 | 0.0 | 0.00 | 0.00 | 0.00 | 100 | |
| 20260503011042 | 7 | 330 | 0.0 | 0.0 | 0.00 | 0.00 | 0.00 | 100 | |
| 20260503010542 | 7 | 330 | 0.0 | 0.0 | 0.00 | 0.00 | 0.00 | 100 | |
| 20260503010042 | 7 | 330 | 0.0 | 0.0 | 0.00 | 0.00 | 0.00 | 100 | |
| 20260503005542 | 7 | 330 | 0.0 | 0.0 | 0.00 | 0.00 | 0.00 | 100 | |
| 20260503005042 | 7 | 330 | 0.0 | 0.0 | 0.00 | 0.00 | 0.00 | 100 | |
| 20260503004542 | 7 | 330 | 0.0 | 0.0 | 0.00 | 0.00 | 0.00 | 100 | |
| 20260503004042 | 8 | 330 | 0.0 | 0.0 | 0.00 | 0.00 | 0.00 | 100 | |
| 20260503003542 | 8 | 330 | 0.0 | 0.0 | 0.00 | 0.00 | 0.00 | 100 | |
| 20260503003042 | 8 | 330 | 0.0 | 0.0 | 0.00 | 0.00 | 0.00 | 100 | |
| 20260503002542 | 8 | 330 | 0.0 | 0.0 | 0.00 | 0.00 | 0.00 | 100 | |
| 20260503002042 | 8 | 330 | 0.0 | 0.0 | 0.00 | 0.00 | 0.00 | 100 | |
| 20260503001542 | 9 | 330 | 0.0 | 3.2 | 0.00 | 0.00 | 0.00 | 100 | |
| 20260503001042 | 8 | 277 | 0.0 | 0.0 | 0.00 | 0.00 | 0.00 | 100 | |
| 20260503000542 | 9 | 277 | 0.0 | 0.0 | 0.00 | 0.00 | 0.00 | 100 | |
| 20260503000042 | 9 | 277 | 0.0 | 0.0 | 0.00 | 0.00 | 0.00 | 100 | |
| 20260502235542 | 9 | 277 | 0.0 | 4.8 | 0.00 | 0.00 | 0.00 | 100 | |
| 20260502235042 | 9 | 291 | 0.0 | 0.0 | 0.00 | 0.00 | 0.00 | 100 | |
| 20260502234542 | 9 | 291 | 0.0 | 0.0 | 0.00 | 0.00 | 0.00 | 100 | |
| 20260502234042 | 9 | 291 | 0.0 | 0.0 | 0.00 | 0.00 | 0.00 | 100 | |
| 20260502233542 | 9 | 291 | 0.0 | 1.6 | 0.00 | 0.00 | 0.00 | 100 | |
| 20260502233042 | 9 | 338 | 0.0 | 0.0 | 0.00 | 0.00 | 0.00 | 100 | |
| 20260502232542 | 9 | 338 | 0.0 | 0.0 | 0.00 | 0.00 | 0.00 | 100 | |
| 20260502232042 | 9 | 338 | 0.0 | 4.8 | 0.00 | 0.00 | 0.00 | 100 | |
| 20260502231542 | 10 | 23 | 0.0 | 4.8 | 0.00 | 0.00 | 0.00 | 100 | |
| 20260502231042 | 10 | 307 | 0.0 | 0.0 | 0.00 | 0.00 | 0.00 | 100 | |
| 20260502230542 | 10 | 307 | 0.0 | 0.0 | 0.00 | 0.00 | 0.00 | 100 | |
| 20260502230042 | 10 | 307 | 0.0 | 1.6 | 0.00 | 0.00 | 0.00 | 100 | |
| 20260502225542 | 10 | 282 | 0.0 | 8.0 | 0.00 | 0.00 | 0.00 | 100 | |
| 20260502225042 | 10 | 312 | 0.0 | 4.8 | 0.00 | 0.00 | 0.00 | 100 | |
| 20260502224542 | 10 | 284 | 1.6 | 9.7 | 0.00 | 0.00 | 0.00 | 100 | |
| 20260502224042 | 10 | 215 | 0.0 | 6.4 | 0.00 | 0.00 | 0.00 | 100 | |
| 20260502223542 | 10 | 282 | 1.6 | 12.9 | 0.00 | 0.00 | 0.00 | 100 | |
| 20260502223042 | 10 | 234 | 0.0 | 11.3 | 0.00 | 0.00 | 0.00 | 100 | |
| 20260502222542 | 10 | 254 | 0.0 | 3.2 | 0.00 | 0.00 | 0.00 | 100 | |
| 20260502222042 | 10 | 309 | 3.2 | 11.3 | 0.00 | 0.00 | 0.00 | 100 | |
| 20260502221542 | 10 | 250 | 4.8 | 11.3 | 0.00 | 0.00 | 0.00 | 100 | |
| 20260502221042 | 10 | 298 | 3.2 | 11.3 | 0.00 | 0.00 | 0.00 | 100 | |
| 20260502220542 | 10 | 299 | 0.0 | 9.7 | 0.00 | 0.00 | 0.00 | 100 | |
| 20260502220042 | 10 | 310 | 1.6 | 12.9 | 0.00 | 0.00 | 0.00 | 100 | |
| 20260502215542 | 10 | 267 | 0.0 | 14.5 | 0.00 | 0.00 | 0.00 | 100 | |
| 20260502215042 | 10 | 298 | 3.2 | 16.1 | 0.00 | 0.00 | 0.00 | 100 | |
| 20260502214542 | 10 | 226 | 6.4 | 12.9 | 0.00 | 0.00 | 0.00 | 100 | |
| 20260502214042 | 11 | 275 | 0.0 | 3.2 | 0.00 | 0.00 | 0.00 | 100 | |
| 20260502213542 | 10 | 309 | 0.0 | 9.7 | 0.00 | 0.00 | 0.00 | 100 | |
| 20260502213042 | 10 | 12 | 0.0 | 3.2 | 0.00 | 0.00 | 0.00 | 100 | |
| 20260502212542 | 10 | 284 | 1.6 | 12.9 | 0.00 | 0.00 | 0.00 | 100 | |
| 20260502212042 | 10 | 291 | 0.0 | 6.4 | 0.00 | 0.00 | 0.00 | 100 | |
| 20260502211542 | 10 | 277 | 3.2 | 8.0 | 0.00 | 0.00 | 0.00 | 100 | |
| 20260502211042 | 10 | 315 | 0.0 | 11.3 | 0.00 | 0.00 | 0.00 | 100 | |
| 20260502210542 | 10 | 296 | 0.0 | 4.8 | 0.00 | 0.00 | 0.00 | 100 | |
| 20260502210042 | 10 | 296 | 0.0 | 9.7 | 0.00 | 0.00 | 0.00 | 100 | |
| 20260502205542 | 10 | 284 | 0.0 | 11.3 | 0.00 | 0.00 | 0.00 | 100 | |
| 20260502205042 | 10 | 33 | 3.2 | 8.0 | 0.00 | 0.00 | 0.00 | 100 | |
| 20260502204542 | 10 | 1 | 0.0 | 4.8 | 0.00 | 0.00 | 0.00 | 100 | |
| 20260502204042 | 11 | 270 | 0.0 | 11.3 | 0.00 | 0.00 | 0.00 | 100 | |
| 20260502203542 | 11 | 271 | 0.0 | 8.0 | 0.00 | 0.00 | 0.00 | 100 | |
| 20260502203042 | 11 | 293 | 3.2 | 9.7 | 0.00 | 0.00 | 0.00 | 100 | |
| 20260502202542 | 10 | 268 | 0.0 | 6.4 | 0.00 | 0.00 | 0.00 | 100 | |
| 20260502202043 | 11 | 274 | 0.0 | 0.0 | 0.00 | 0.00 | 0.00 | 100 | |
| 20260502201543 | 11 | 274 | 0.0 | 6.4 | 0.00 | 0.00 | 0.00 | 100 | |
| 20260502201043 | 11 | 288 | 0.0 | 11.3 | 0.00 | 0.00 | 0.00 | 100 | |
| 20260502200543 | 11 | 272 | 4.8 | 11.3 | 0.00 | 0.00 | 0.00 | 100 | |
| 20260502200043 | 11 | 270 | 8.0 | 12.9 | 0.00 | 0.00 | 0.00 | 100 | |
| 20260502195543 | 11 | 251 | 1.6 | 9.7 | 0.00 | 0.00 | 0.00 | 100 | |
| 20260502195043 | 11 | 265 | 0.0 | 16.1 | 0.00 | 0.00 | 0.00 | 100 | |
| 20260502194543 | 11 | 272 | 8.0 | 12.9 | 0.00 | 0.00 | 0.00 | 100 |